"datetime","# probes","# resolvers","can_ipv6","can_ipv6_prbs","can_tcp","can_tcp_prbs","can_tcp6","can_tcp6_prbs","does_ecs","does_ecs_prbs","does_flagday","does_flagday_prbs","does_rov4","does_rov4_prbs","does_rov6","does_rov6_prbs","does_qnamemin","doesnt_qnamemin","does_qnamemin_prbs","doesnt_qnamemin_prbs","does_nxdomain","doesnt_nxdomain","does_nxdomain_prbs","doesnt_nxdomain_prbs","has_ta_19036","hasnt_ta_19036","has_ta_19036_prbs","hasnt_ta_19036_prbs","has_ta_20326","hasnt_ta_20326","has_ta_20326_prbs","hasnt_ta_20326_prbs","can_rsamd5","cannot_rsamd5","broken_rsamd5","can_rsamd5_prbs","cannot_rsamd5_prbs","broken_rsamd5_prbs","can_dsa","cannot_dsa","broken_dsa","can_dsa_prbs","cannot_dsa_prbs","broken_dsa_prbs","can_rsasha1","cannot_rsasha1","broken_rsasha1","can_rsasha1_prbs","cannot_rsasha1_prbs","broken_rsasha1_prbs","can_dsansec3","cannot_dsansec3","broken_dsansec3","can_dsansec3_prbs","cannot_dsansec3_prbs","broken_dsansec3_prbs","can_rsansec3","cannot_rsansec3","broken_rsansec3","can_rsansec3_prbs","cannot_rsansec3_prbs","broken_rsansec3_prbs","can_rsasha256","cannot_rsasha256","broken_rsasha256","can_rsasha256_prbs","cannot_rsasha256_prbs","broken_rsasha256_prbs","can_rsasha512","cannot_rsasha512","broken_rsasha512","can_rsasha512_prbs","cannot_rsasha512_prbs","broken_rsasha512_prbs","can_eccgost","cannot_eccgost","broken_eccgost","can_eccgost_prbs","cannot_eccgost_prbs","broken_eccgost_prbs","can_ecdsa256","cannot_ecdsa256","broken_ecdsa256","can_ecdsa256_prbs","cannot_ecdsa256_prbs","broken_ecdsa256_prbs","can_ecdsa384","cannot_ecdsa384","broken_ecdsa384","can_ecdsa384_prbs","cannot_ecdsa384_prbs","broken_ecdsa384_prbs","can_ed25519","cannot_ed25519","broken_ed25519","can_ed25519_prbs","cannot_ed25519_prbs","broken_ed25519_prbs","can_ed448","cannot_ed448","broken_ed448","can_ed448_prbs","cannot_ed448_prbs","broken_ed448_prbs","can_gost","cannot_gost","broken_gost","can_gost_prbs","cannot_gost_prbs","broken_gost_prbs","can_sha384","cannot_sha384","broken_sha384","can_sha384_prbs","cannot_sha384_prbs","broken_sha384_prbs","is_internal","is_forwarding","is_external","is_internal_prbs","is_forwarding_prbs","is_external_prbs"
2017-06-20T23:59:53Z,59,86,66,49,84,58,63,46,6,14,0,0,0,0,0,0,0,86,0,59,0,84,0,58,0,0,0,0,0,0,0,0,44,35,7,32,30,11,86,0,0,59,16,0,85,1,0,59,9,0,84,2,0,58,17,0,84,2,0,58,10,0,84,2,0,58,9,0,84,2,0,58,10,0,42,41,3,29,39,2,77,7,2,54,13,1,77,7,2,54,14,1,0,83,3,0,57,2,0,81,5,0,56,3,44,39,3,32,34,2,79,7,0,55,13,0,61,15,10,45,11,13
2017-06-21T23:59:53Z,59,87,66,49,85,58,63,46,7,13,0,0,0,0,0,0,0,87,0,59,0,85,0,58,0,0,0,0,0,0,0,0,45,37,5,32,30,10,87,0,0,59,16,0,87,0,0,59,8,0,87,0,0,59,16,0,87,0,0,59,8,0,87,0,0,59,9,0,87,0,0,59,8,0,41,43,3,28,40,2,80,5,2,55,12,1,80,5,2,55,12,1,0,84,3,0,57,2,0,84,3,0,57,2,43,41,3,31,35,2,82,5,0,56,13,0,61,16,10,44,12,14
2017-06-22T23:59:54Z,62,89,70,53,87,61,66,49,10,15,0,0,0,0,0,0,0,89,0,62,0,87,0,61,0,0,0,0,0,0,0,0,44,40,5,31,33,10,89,0,0,62,16,0,88,1,0,61,9,0,86,3,0,60,18,0,87,2,0,60,10,0,87,2,0,60,10,0,87,2,0,60,10,0,41,45,3,29,42,2,80,7,2,56,15,1,80,7,2,56,14,1,0,86,3,0,60,2,0,86,3,0,60,2,44,42,3,32,37,2,82,7,0,57,15,0,63,16,10,48,12,13
2017-06-23T23:59:55Z,61,89,70,52,87,60,66,48,7,13,0,0,0,0,0,0,0,89,0,61,0,87,0,60,0,0,0,0,0,0,0,0,45,38,6,32,32,11,89,0,0,61,16,0,89,0,0,61,8,0,88,1,0,61,16,0,89,0,0,61,9,0,89,0,0,61,8,0,89,0,0,61,8,0,44,42,3,30,40,2,82,5,2,57,13,1,82,5,2,57,12,1,0,85,4,0,59,3,0,86,3,0,59,2,46,40,3,33,35,2,84,5,0,58,12,0,63,16,10,47,13,13
2017-06-24T23:59:53Z,59,86,68,51,84,58,64,47,5,12,0,0,0,0,0,0,0,86,0,59,0,84,0,58,0,0,0,0,0,0,0,0,44,37,5,31,30,10,86,0,0,59,16,0,86,0,0,59,8,0,86,0,0,59,16,0,86,0,0,59,9,0,86,0,0,59,8,0,86,0,0,59,8,0,42,41,3,29,39,2,79,5,2,55,12,1,79,5,2,55,12,1,0,83,3,0,57,2,0,83,3,0,57,2,44,39,3,32,34,2,81,5,0,56,13,0,62,14,10,46,10,13
2017-06-25T23:59:56Z,63,92,74,55,90,62,70,51,9,14,0,0,0,0,0,0,0,92,0,63,0,90,0,62,0,0,0,0,0,0,0,0,47,38,7,34,32,11,92,0,0,63,16,1,92,0,0,63,8,0,89,3,0,61,18,0,90,2,0,62,9,0,90,2,0,62,9,0,90,2,0,62,10,0,43,44,5,30,41,3,83,7,2,58,13,1,83,7,2,58,13,1,0,87,5,1,60,3,0,87,5,0,60,3,46,41,5,34,35,3,85,7,0,59,14,0,64,18,10,48,12,13
2017-06-26T23:59:54Z,63,92,73,54,90,62,69,50,10,15,0,0,0,0,0,0,0,92,0,63,0,92,0,63,0,0,0,0,0,0,0,0,45,40,7,32,33,11,92,0,0,63,17,0,92,0,0,63,10,0,92,0,0,63,17,0,92,0,0,63,9,0,92,0,0,63,10,0,92,0,0,63,9,0,42,44,6,30,41,4,85,5,2,59,13,1,85,5,2,59,13,1,0,87,5,0,60,3,0,86,6,0,60,4,46,41,5,33,36,3,87,5,0,60,14,0,65,17,10,48,12,13
2017-06-27T23:59:55Z,65,92,72,56,90,64,67,52,12,16,0,0,0,0,0,0,0,92,0,65,0,90,0,64,0,0,0,0,0,0,0,0,49,36,7,36,34,11,92,0,0,65,18,0,92,0,0,65,9,0,91,1,0,64,19,0,92,0,0,65,10,0,91,1,0,64,11,0,91,1,0,64,10,0,44,43,5,31,43,3,87,3,2,62,12,1,87,3,2,62,12,1,0,87,5,0,62,3,0,87,5,0,62,3,46,41,5,34,37,3,87,5,0,62,13,0,65,17,10,50,13,13
2017-06-28T23:59:53Z,65,92,72,56,90,64,67,51,11,18,0,0,0,0,0,0,0,92,0,65,0,90,0,64,0,0,0,0,0,0,0,0,47,38,7,34,34,11,92,0,0,65,18,1,91,1,0,64,10,0,88,2,2,62,20,1,91,1,0,64,11,0,91,1,0,64,10,0,92,0,0,65,10,0,44,43,5,31,43,4,84,6,2,60,14,1,85,5,2,61,13,1,0,87,5,0,62,4,0,87,5,0,62,3,45,42,5,34,38,3,86,6,0,61,15,0,66,16,10,51,14,13
2017-06-29T23:59:56Z,65,94,74,56,92,64,68,51,8,15,0,0,0,0,0,0,0,94,0,65,0,94,0,65,0,0,0,0,0,0,0,0,48,39,7,35,35,12,94,0,0,65,19,0,93,1,0,64,10,0,93,1,0,64,20,0,93,1,0,64,10,0,93,1,0,64,11,0,93,1,0,64,10,0,44,44,6,31,44,4,85,7,2,60,15,1,84,8,2,59,15,1,0,87,7,0,61,4,0,88,6,0,62,4,47,42,5,34,37,3,87,7,0,61,14,0,66,18,10,49,14,14
2017-06-30T23:59:53Z,63,90,71,54,88,62,65,49,8,14,0,0,0,0,0,0,0,90,0,63,0,88,0,62,0,0,0,0,0,0,0,0,47,36,7,34,33,11,90,0,0,63,17,0,89,1,0,62,10,0,88,2,0,61,19,0,88,2,0,61,11,0,88,2,0,61,11,0,88,2,0,61,11,0,44,41,5,30,42,3,81,7,2,57,15,1,81,7,2,57,15,1,0,84,6,0,60,4,0,84,6,0,60,4,45,40,5,33,37,3,84,6,0,59,14,0,64,16,10,49,12,13
2017-07-01T23:59:54Z,64,93,74,55,91,63,70,51,10,16,0,0,0,0,0,0,0,93,0,64,0,93,0,64,0,0,0,0,0,0,0,0,47,39,7,34,33,11,93,0,0,64,17,0,93,0,0,64,9,0,90,3,0,62,19,0,91,2,0,63,10,0,91,2,0,63,10,0,91,2,0,63,10,0,42,45,6,30,43,4,83,8,2,58,15,1,83,8,2,58,15,1,0,88,5,0,61,3,0,86,7,0,60,4,46,42,5,34,37,3,86,7,0,60,14,0,64,19,10,48,14,13
2017-07-02T23:59:54Z,62,89,70,53,87,61,65,49,10,16,0,0,0,0,0,0,0,89,0,62,0,89,0,62,0,0,0,0,0,0,0,0,46,36,7,33,32,11,89,0,0,62,17,0,88,1,0,61,10,0,88,1,0,61,18,0,88,1,0,61,10,0,88,1,0,61,10,0,88,1,0,61,10,0,40,44,5,28,43,3,83,4,2,58,13,1,83,4,2,58,13,1,0,84,5,0,59,3,0,84,5,0,59,3,43,41,5,31,37,3,83,6,0,58,14,0,62,17,10,47,13,13
2017-07-03T23:59:59Z,66,96,76,57,94,65,71,53,12,17,0,0,0,0,0,0,0,96,0,66,0,94,0,65,0,0,0,0,0,0,0,0,47,42,7,34,35,12,96,0,0,66,19,0,96,0,0,66,9,0,94,2,0,65,20,0,96,0,0,66,9,0,96,0,0,66,9,0,96,0,0,66,10,0,43,46,7,29,46,4,88,6,2,61,15,1,88,6,2,61,14,1,0,91,5,0,63,3,1,90,5,1,63,3,48,43,5,34,38,3,91,5,0,63,14,0,68,18,10,51,13,13
2017-07-04T23:59:59Z,65,95,75,56,93,64,69,52,8,15,0,0,0,0,0,0,0,95,0,65,0,95,0,65,0,0,0,0,0,0,0,0,48,39,8,35,35,12,95,0,0,65,18,0,95,0,0,65,10,0,95,0,0,65,18,0,95,0,0,65,9,0,95,0,0,65,9,0,95,0,0,65,10,0,45,45,5,30,44,3,88,5,2,61,13,1,88,5,2,61,13,1,0,89,6,0,62,4,0,89,6,0,62,4,47,43,5,33,38,3,90,5,0,62,13,0,66,19,10,49,15,13
2017-07-05T23:59:59Z,66,96,76,57,93,65,70,52,8,14,0,0,0,0,0,0,0,96,0,66,0,96,0,66,0,0,0,0,0,0,0,0,47,41,8,34,36,12,96,0,0,66,18,0,96,0,0,66,9,0,96,0,0,66,18,0,96,0,0,66,9,0,96,0,0,66,9,0,96,0,0,66,9,0,43,46,7,30,44,4,88,6,2,61,14,1,88,6,2,61,14,1,1,90,5,1,63,3,1,90,5,1,63,3,47,44,5,34,38,3,91,5,0,63,13,0,67,19,10,50,15,13
2017-07-06T23:59:58Z,64,95,75,55,93,63,70,52,10,15,0,0,0,0,0,0,0,95,0,64,0,93,0,63,0,0,0,0,0,0,0,0,47,41,7,34,34,11,95,0,0,64,18,0,95,0,0,64,9,0,95,0,0,64,18,0,95,0,0,64,9,0,95,0,0,64,9,0,95,0,0,64,9,0,43,47,5,29,44,3,88,5,2,60,13,1,88,5,2,60,13,1,0,90,5,0,61,3,0,90,5,0,61,3,45,45,5,32,38,3,90,5,0,61,13,0,67,18,10,49,13,13
2017-07-07T23:59:59Z,68,100,80,59,98,67,75,56,9,17,0,0,0,0,0,0,0,100,0,68,0,98,0,67,0,0,0,0,0,0,0,0,51,42,7,37,36,12,100,0,0,68,19,0,100,0,0,68,9,0,99,1,0,67,19,0,100,0,0,68,9,0,100,0,0,68,9,0,100,0,0,68,9,0,46,49,5,31,46,3,91,7,2,64,14,1,91,7,2,64,14,1,1,94,5,1,65,3,1,94,5,1,65,3,49,46,5,35,39,4,93,7,0,65,14,0,71,19,10,52,15,13
2017-07-08T23:59:59Z,65,96,76,56,94,64,71,53,9,14,0,0,0,0,0,0,0,96,0,65,0,96,0,65,0,0,0,0,0,0,0,0,50,39,7,36,34,12,96,0,0,65,19,0,95,1,0,64,10,0,95,1,0,64,19,0,95,1,0,64,10,0,95,1,0,64,10,0,95,1,0,64,10,0,43,48,5,29,45,3,86,8,2,60,15,1,86,8,2,60,15,1,0,91,5,0,62,3,0,91,5,0,62,3,46,45,5,33,38,5,88,8,0,61,15,0,68,18,10,50,14,13
2017-07-09T23:59:59Z,66,97,76,57,94,65,70,53,11,15,0,0,0,0,0,0,1,96,1,66,0,94,0,65,0,0,0,0,0,0,0,0,50,39,8,36,34,13,97,0,0,66,18,0,96,1,0,65,9,0,94,3,0,64,19,1,96,1,0,65,9,0,96,1,0,65,9,0,96,1,0,65,9,0,41,49,7,29,45,5,89,6,2,62,13,1,89,6,2,62,13,1,0,91,6,0,63,4,0,91,6,0,63,4,45,46,5,33,38,4,88,8,0,62,14,0,70,17,10,52,12,12
2017-07-10T23:59:59Z,66,96,76,57,94,65,71,53,8,13,0,0,0,0,0,0,0,96,1,66,0,96,0,66,0,0,0,0,0,0,0,0,49,40,7,36,34,12,96,0,0,66,18,0,96,0,0,66,8,0,95,1,0,65,18,0,96,0,0,66,8,0,96,0,0,66,8,0,96,0,0,66,8,0,41,50,5,29,45,3,86,8,2,61,14,1,86,8,2,61,14,1,0,91,5,0,63,3,0,91,5,0,63,3,43,48,5,32,39,4,86,10,0,61,15,0,69,17,10,52,12,12
2017-07-11T23:59:59Z,66,97,77,57,95,65,72,53,12,15,0,0,0,0,0,0,1,96,1,66,0,97,0,66,0,0,0,0,0,0,0,0,50,38,9,37,32,14,97,0,0,66,17,0,97,0,0,66,7,0,96,1,0,65,17,0,97,0,0,66,7,0,97,0,0,66,7,0,97,0,0,66,7,0,42,49,6,29,44,4,88,7,2,62,12,1,88,7,2,62,12,1,0,91,6,0,63,4,0,89,8,0,62,5,45,46,6,33,37,5,88,9,0,62,13,0,69,18,10,51,14,12
2017-07-12T23:59:57Z,64,94,74,55,92,63,70,52,9,13,0,0,0,0,0,0,1,93,1,64,0,92,0,63,0,0,0,0,0,0,0,0,47,39,8,34,33,13,94,0,0,64,17,0,93,1,0,63,8,0,92,2,0,62,18,0,92,2,0,62,9,0,92,2,0,62,9,0,92,2,0,62,9,0,40,48,6,28,43,5,83,9,2,58,14,1,83,9,2,58,14,1,0,88,6,0,61,4,0,88,6,0,61,4,42,46,6,31,37,5,84,10,0,58,15,0,67,17,10,50,12,12
2017-07-13T23:59:59Z,67,99,78,58,97,66,73,54,9,15,0,0,0,0,0,0,1,98,1,67,0,95,0,65,0,0,0,0,0,0,0,0,49,41,9,35,35,15,99,0,0,67,19,0,99,0,0,67,7,0,98,0,1,67,17,1,99,0,0,67,7,0,98,1,0,66,8,0,98,1,0,66,8,0,43,50,6,30,45,4,89,8,2,62,13,1,91,6,2,63,12,1,0,93,6,0,64,4,1,92,6,1,64,4,46,47,6,34,37,5,92,7,0,64,12,0,70,18,11,52,13,13
2017-07-14T23:59:59Z,66,97,76,57,95,65,71,53,7,14,0,0,0,0,0,0,1,96,1,66,0,95,0,65,0,0,0,0,0,0,0,0,49,39,9,35,33,15,97,0,0,66,19,0,97,0,0,66,7,0,96,1,0,65,18,0,97,0,0,66,7,0,97,0,0,66,7,0,97,0,0,66,7,0,43,48,6,30,44,4,88,7,2,62,12,1,88,7,2,62,12,1,0,91,6,0,63,4,0,91,6,0,63,4,45,45,7,34,36,6,90,7,0,63,12,0,68,18,11,51,13,13
2017-07-15T23:59:59Z,67,99,78,58,97,66,73,54,10,15,0,0,0,0,0,0,1,98,1,67,0,97,0,66,0,0,0,0,0,0,0,0,49,42,8,35,34,14,99,0,0,67,18,0,99,0,0,67,7,0,99,0,0,67,17,0,99,0,0,67,7,0,99,0,0,67,7,0,99,0,0,67,7,0,43,48,8,30,44,5,90,7,2,63,12,1,90,7,2,63,12,1,0,93,6,0,64,4,0,93,6,0,64,4,47,46,6,34,37,5,92,7,0,64,12,0,70,18,11,52,13,13
2017-07-16T23:59:58Z,67,98,77,58,96,66,72,54,7,14,0,0,0,0,0,0,1,97,1,67,0,96,0,66,0,0,0,0,0,0,0,0,50,40,8,36,34,14,98,0,0,67,18,0,98,0,0,67,7,0,98,0,0,67,17,0,98,0,0,67,7,0,98,0,0,67,7,0,98,0,0,67,7,0,44,48,6,31,44,4,90,6,2,63,12,1,90,6,2,63,12,1,0,92,6,0,64,4,0,92,6,0,64,4,46,46,6,34,37,5,91,7,0,64,12,0,70,17,11,53,12,13
2017-07-17T23:59:58Z,66,99,79,58,97,65,73,54,8,15,0,0,0,0,0,0,1,98,1,66,0,97,0,65,0,0,0,0,0,0,0,0,50,41,8,36,34,14,99,0,0,66,18,0,99,0,0,66,7,0,98,0,1,66,17,1,99,0,0,66,7,0,99,0,0,66,7,0,99,0,0,66,7,0,40,53,6,28,46,4,90,7,2,62,12,1,90,7,2,62,12,1,0,91,8,0,62,5,0,93,6,0,63,4,42,49,8,31,38,6,91,8,0,62,13,0,71,17,11,52,13,13
2017-07-18T23:59:59Z,66,99,79,58,96,65,75,55,8,15,0,0,0,0,0,0,1,98,1,66,0,99,0,66,0,0,0,0,0,0,0,0,49,40,10,35,33,15,99,0,0,66,18,0,99,0,0,66,7,0,99,0,0,66,17,0,99,0,0,66,7,0,99,0,0,66,7,0,99,0,0,66,7,0,43,48,8,29,44,5,92,5,2,63,11,1,92,5,2,63,11,1,2,91,6,1,62,4,0,93,6,0,63,4,47,46,6,33,37,5,94,5,0,64,11,0,70,18,11,51,13,13
2017-07-19T23:59:59Z,66,98,78,58,96,65,74,55,8,13,0,0,0,0,0,0,0,98,1,66,0,98,0,66,0,0,0,0,0,0,0,0,48,43,7,34,35,13,98,0,0,66,19,0,98,0,0,66,8,0,97,1,0,65,19,0,98,0,0,66,8,0,97,1,0,65,9,0,97,1,0,65,9,0,44,49,5,29,46,3,90,6,2,62,13,1,88,8,2,61,14,1,0,92,6,0,63,4,1,92,5,1,63,3,46,47,5,33,39,4,93,5,0,64,12,0,69,18,11,51,13,13
2017-07-20T23:59:59Z,66,98,78,58,96,65,74,55,8,14,0,0,0,0,0,0,1,97,1,66,0,96,0,65,0,0,0,0,0,0,0,0,49,41,8,35,34,14,98,0,0,66,18,0,97,1,0,65,8,0,96,2,0,64,19,0,96,2,0,64,9,0,96,2,0,64,9,0,96,2,0,64,9,0,42,50,6,28,46,4,87,9,2,60,14,1,87,9,2,60,14,1,0,92,6,0,63,4,0,92,6,0,63,4,44,48,6,31,39,6,87,11,0,60,15,0,70,17,11,52,12,13
2017-07-21T23:59:59Z,64,97,78,56,95,63,74,53,8,14,0,0,0,0,0,0,1,96,1,64,0,97,0,64,0,0,0,0,0,0,0,0,47,42,8,33,32,14,97,0,0,64,17,0,97,0,0,64,7,0,96,1,0,64,16,0,97,0,0,64,7,0,97,0,0,64,7,0,97,0,0,64,7,0,42,49,6,28,43,4,87,8,2,59,13,1,87,8,2,59,14,1,0,91,6,0,61,4,0,91,6,0,61,4,44,47,6,31,37,5,89,8,0,60,13,0,69,17,11,50,12,13
2017-07-22T23:59:58Z,65,99,80,57,96,63,75,53,7,13,0,0,0,0,0,0,0,99,1,65,0,96,0,63,0,0,0,0,0,0,0,0,48,44,7,34,34,13,99,0,0,65,18,0,98,1,0,64,9,0,95,4,0,63,19,0,96,3,0,63,10,0,96,3,0,63,10,0,96,3,0,63,10,0,41,53,5,27,46,3,88,9,2,60,15,1,88,9,2,60,14,1,0,94,5,0,62,3,0,94,5,0,62,3,44,50,5,31,39,4,89,10,0,60,16,0,69,19,11,50,12,13
2017-07-23T23:59:59Z,63,93,74,55,91,62,70,52,9,14,0,0,0,0,0,0,0,93,1,63,0,91,0,62,0,0,0,0,0,0,0,0,47,39,7,33,32,13,93,0,0,63,18,0,92,1,0,62,9,0,92,1,0,62,18,0,92,1,0,62,10,0,93,0,0,63,8,0,92,1,0,62,10,0,41,47,5,27,44,3,83,8,2,58,14,1,84,7,2,59,14,1,0,88,5,0,60,3,0,88,5,0,60,3,43,45,5,30,38,4,85,8,0,59,14,0,64,18,11,48,12,13
2017-07-24T23:59:59Z,64,96,77,56,94,63,73,53,10,15,0,0,0,0,0,0,0,96,1,64,0,94,0,63,0,0,0,0,0,0,0,0,47,42,7,33,33,13,96,0,0,64,18,0,94,2,0,63,10,0,96,0,0,64,17,0,96,0,0,64,9,0,94,2,0,63,10,0,95,1,0,64,9,0,41,50,5,27,45,3,87,7,2,60,13,1,87,7,2,60,13,1,0,91,5,0,61,3,0,91,5,0,61,3,45,46,5,30,38,4,89,7,0,61,13,0,67,18,11,49,12,13
2017-07-25T23:59:59Z,62,94,76,54,92,61,72,51,11,15,0,0,0,0,0,0,1,93,1,62,0,94,0,62,0,0,0,0,0,0,0,0,46,40,8,32,30,14,94,0,0,62,16,0,94,0,0,62,7,0,93,1,0,62,15,0,94,0,0,62,8,0,94,0,0,62,7,0,94,0,0,62,7,0,41,47,6,27,42,4,86,6,2,59,11,1,86,6,2,59,11,1,0,88,6,0,59,4,0,88,6,0,59,4,43,45,6,30,36,5,88,6,0,60,12,0,65,18,11,47,13,13
2017-07-26T23:59:59Z,63,95,77,55,92,62,73,52,6,12,0,0,0,0,0,0,0,95,1,63,0,95,0,63,0,0,0,0,0,0,0,0,47,41,7,33,32,13,95,0,0,63,17,0,95,0,0,63,8,0,93,2,0,62,17,0,93,2,0,62,9,0,93,2,0,62,9,0,93,2,0,62,10,0,41,49,5,27,44,3,85,8,2,59,14,1,85,8,2,59,14,1,0,90,5,0,60,3,0,90,5,0,60,3,43,47,5,30,38,4,91,4,0,62,12,0,65,19,11,48,12,13
2017-07-27T23:59:59Z,65,96,78,57,94,64,74,54,9,14,0,0,0,0,0,0,0,96,1,65,0,94,0,64,0,0,0,0,0,0,0,0,49,40,7,35,32,13,96,0,0,65,17,0,96,0,0,65,8,0,95,1,0,64,17,0,95,1,0,64,10,0,95,1,0,64,9,0,95,1,0,64,9,0,39,52,5,26,47,3,86,8,2,60,15,1,86,8,2,60,15,1,0,91,5,0,62,3,0,91,5,0,62,3,43,48,5,31,39,4,89,7,0,62,14,0,68,17,11,51,11,13
2017-07-28T23:59:58Z,66,99,81,58,96,65,77,55,10,15,0,0,0,0,0,0,1,98,1,66,0,97,0,65,0,0,0,0,0,0,0,0,51,40,8,37,31,14,99,0,0,66,17,0,98,1,0,65,8,0,99,0,0,66,15,0,99,0,0,66,7,0,99,0,0,66,7,0,99,0,0,66,7,0,41,52,6,28,45,4,90,7,2,62,12,1,91,6,2,63,12,1,0,93,6,0,63,4,0,93,6,0,63,4,43,50,6,31,39,5,90,9,0,62,13,0,71,17,11,52,11,13
2017-07-29T23:59:59Z,64,95,78,57,93,63,74,54,7,13,0,0,0,0,0,0,0,95,1,64,0,95,0,64,0,0,0,0,0,0,0,0,48,42,5,34,32,12,95,0,0,64,16,0,94,1,0,63,9,0,92,3,0,62,17,0,94,1,0,63,8,0,94,1,0,63,9,0,94,1,0,63,8,0,39,53,3,26,46,2,85,8,2,59,13,1,85,8,2,59,13,1,0,92,3,0,62,2,0,92,3,0,62,2,42,50,3,30,39,3,88,7,0,61,12,0,69,15,11,51,11,13
2017-07-30T23:59:58Z,62,93,76,55,90,61,71,52,7,13,0,0,0,0,0,0,0,93,1,62,0,89,0,60,0,0,0,0,0,0,0,0,48,40,5,34,31,12,93,0,0,62,16,0,93,0,0,62,7,0,91,2,0,61,16,0,91,2,0,61,8,0,91,2,0,61,8,0,91,2,0,61,9,0,38,52,3,25,45,2,83,8,2,58,12,1,83,8,2,58,12,1,0,90,3,0,60,2,0,90,3,0,60,2,40,50,3,28,39,3,87,6,0,60,12,0,65,17,11,48,11,13
2017-07-31T23:59:57Z,62,93,76,55,91,61,71,51,7,13,0,0,0,0,0,0,1,92,1,62,0,91,0,61,0,0,0,0,0,0,0,0,49,38,6,35,29,13,93,0,0,62,15,0,93,0,0,62,7,0,93,0,0,62,14,0,93,0,0,62,6,0,93,0,0,62,6,0,93,0,0,62,6,0,38,51,4,26,43,3,85,6,2,59,10,1,85,6,2,59,10,1,0,89,4,0,60,3,0,89,4,0,60,3,40,49,4,29,37,4,87,6,0,60,10,0,67,15,11,49,10,13
2017-08-01T23:59:58Z,60,89,72,53,87,59,68,50,7,13,0,0,0,0,0,0,1,88,1,60,0,89,0,60,0,0,0,0,0,0,0,0,47,36,6,33,28,13,89,0,0,60,15,0,89,0,0,60,6,0,89,0,0,60,14,0,89,0,0,60,7,0,89,0,0,60,6,0,89,0,0,60,6,0,38,47,4,25,42,3,81,6,2,57,10,1,81,6,2,57,10,1,0,85,4,0,58,3,0,85,4,0,58,3,40,45,4,28,36,4,83,6,0,58,11,0,62,16,11,46,12,13
2017-08-02T23:59:59Z,62,91,74,55,89,61,70,52,4,11,0,0,0,0,0,0,0,91,1,62,0,87,0,60,0,0,0,0,0,0,0,0,47,39,5,33,31,12,91,0,0,62,16,0,91,0,0,62,7,0,90,1,0,61,16,0,90,1,0,61,9,0,90,1,0,61,8,0,90,1,0,61,8,0,38,50,3,25,45,2,82,7,2,58,12,1,82,7,2,58,13,1,0,88,3,0,60,2,0,88,3,0,60,2,40,48,3,28,39,3,84,7,0,59,12,0,65,15,11,49,11,13
2017-08-03T23:59:59Z,64,94,77,57,92,63,73,54,5,12,0,0,0,0,0,0,0,94,1,64,0,94,0,64,0,0,0,0,0,0,0,0,48,41,5,34,33,12,94,0,0,64,16,0,94,0,0,64,8,0,93,1,0,63,16,0,93,1,0,63,9,0,92,2,0,62,10,0,92,2,0,62,9,0,38,53,3,25,47,2,86,6,2,60,12,1,86,6,2,60,13,1,0,90,4,0,62,3,0,90,4,0,62,3,40,51,3,28,41,3,89,5,0,62,11,0,68,15,11,51,10,13
2017-08-04T23:59:58Z,64,96,79,57,94,63,75,54,7,13,0,0,0,0,0,0,1,95,1,64,0,94,0,63,0,0,0,0,0,0,0,0,48,42,6,34,31,13,96,0,0,64,15,0,96,0,0,64,6,0,93,3,0,62,16,0,94,2,0,63,7,0,93,3,0,62,8,0,93,3,0,62,9,0,39,53,4,26,45,3,86,8,2,59,13,1,84,10,2,58,14,1,0,92,4,0,62,3,0,92,4,0,62,3,41,51,4,29,39,4,89,7,0,61,11,0,67,18,11,49,13,13
2017-08-05T23:59:59Z,63,92,75,56,90,62,71,53,5,12,0,0,0,0,0,0,1,91,1,63,0,92,0,63,0,0,0,0,0,0,0,0,47,39,6,33,31,13,92,0,0,63,15,0,91,1,0,62,8,0,89,3,0,60,17,0,90,2,0,61,8,0,89,3,0,60,10,0,89,3,0,60,10,0,38,50,4,25,45,3,81,9,2,57,13,1,81,9,2,57,14,1,0,88,4,0,61,3,0,88,4,0,61,3,41,47,4,29,38,4,83,9,0,58,14,0,66,15,11,50,10,13
2017-08-06T23:59:59Z,64,96,80,58,94,63,76,55,6,13,0,0,0,0,0,0,2,94,2,63,0,96,0,64,0,0,0,0,0,0,0,0,47,42,7,33,32,14,96,0,0,64,15,0,96,0,0,64,6,0,94,1,1,63,15,1,96,0,0,64,7,0,95,1,0,64,8,0,94,2,0,63,7,0,41,51,4,27,44,3,85,9,2,59,13,1,87,7,2,60,11,1,0,92,4,0,62,3,2,90,4,1,61,3,43,49,4,30,38,4,92,4,0,63,9,0,69,16,11,51,10,13
2017-08-07T23:59:58Z,64,95,78,57,92,63,74,54,5,12,0,0,0,0,0,0,2,93,2,63,0,91,0,62,0,0,0,0,0,0,0,0,48,41,6,34,31,13,95,0,0,64,15,0,94,1,0,63,7,0,94,1,0,63,15,0,94,1,0,63,7,0,94,1,0,63,8,0,94,1,0,63,7,0,38,53,4,25,46,3,86,7,2,60,11,1,86,7,2,60,11,1,0,91,4,0,62,3,0,91,4,0,62,3,41,50,4,29,39,4,87,8,0,60,13,0,69,15,11,51,11,13
2017-08-08T23:59:58Z,63,94,77,56,92,62,73,53,7,13,0,0,0,0,0,0,2,92,2,62,0,94,0,63,0,0,0,0,0,0,0,0,47,41,6,33,31,13,94,0,0,63,15,0,94,0,0,63,6,0,94,0,0,63,14,0,94,0,0,63,6,0,94,0,0,63,6,0,94,0,0,63,6,0,38,52,4,25,45,3,85,7,2,59,11,1,85,7,2,59,11,1,0,90,4,0,61,3,0,90,4,0,61,3,40,50,4,28,39,4,88,6,0,61,10,0,68,15,11,50,10,13
2017-08-09T23:59:59Z,62,91,74,55,89,61,70,52,7,13,0,0,0,0,0,0,2,89,2,61,0,91,0,62,0,0,0,0,0,0,0,0,47,38,6,33,29,13,91,0,0,62,14,0,91,0,0,62,5,0,90,1,0,61,14,0,90,1,0,61,7,0,89,2,0,60,7,0,90,1,0,61,6,0,38,49,4,25,43,3,81,8,2,57,11,1,81,8,2,57,11,1,0,87,4,0,60,3,0,87,4,0,60,3,41,46,4,29,36,4,85,6,0,59,10,0,64,16,11,48,11,13
2017-08-10T23:59:58Z,62,94,77,55,92,61,73,52,4,12,0,0,0,0,0,0,2,92,2,61,0,94,0,62,0,0,0,0,0,0,0,0,46,42,6,32,30,14,94,0,0,62,15,0,94,0,0,62,5,0,94,0,0,62,14,0,94,0,0,62,5,0,94,0,0,62,5,0,92,2,0,61,7,0,39,51,4,25,43,3,84,8,2,58,11,1,84,8,2,58,11,1,0,90,4,0,60,3,0,90,4,0,60,3,39,51,4,28,38,4,88,6,0,60,9,0,65,18,11,47,12,14
2017-08-11T23:59:58Z,61,91,74,54,89,60,70,51,7,13,0,0,0,0,0,0,2,89,2,60,0,89,0,60,0,0,0,0,0,0,0,0,46,39,6,32,29,13,91,0,0,61,14,0,91,0,0,61,5,0,90,1,0,60,14,0,90,1,0,60,7,0,90,1,0,60,6,0,90,1,0,60,6,0,37,50,4,24,43,3,83,6,2,58,9,1,85,4,2,59,8,1,0,87,4,0,59,3,0,87,4,0,59,3,40,47,4,28,36,4,87,4,0,60,8,0,65,15,11,48,10,13
2017-08-12T23:59:59Z,65,96,79,58,94,64,75,55,8,14,0,0,0,0,0,0,2,94,2,64,0,94,0,64,0,0,0,0,0,0,0,0,48,42,6,34,32,13,96,0,0,65,15,0,95,1,0,64,6,0,93,3,0,62,16,0,95,1,0,64,6,0,94,2,0,63,7,0,94,2,0,63,7,0,37,55,4,24,47,3,86,8,2,60,11,1,85,9,2,59,13,1,0,91,5,0,63,4,0,92,4,0,63,3,40,52,4,28,40,4,88,8,0,61,11,0,70,15,11,52,10,13
2017-08-13T23:59:59Z,62,92,75,55,90,61,72,52,8,14,0,0,0,0,0,0,2,90,2,61,0,90,0,61,0,0,0,0,0,0,0,0,46,40,6,32,30,14,92,0,0,62,14,1,92,0,0,62,5,1,92,0,0,62,13,1,92,0,0,62,5,1,91,1,0,61,7,1,91,1,0,61,6,1,37,51,4,24,44,4,83,7,2,58,11,2,83,7,2,58,10,2,0,88,4,0,60,4,0,88,4,0,60,4,39,49,4,27,38,5,86,6,0,60,9,1,66,15,11,49,11,13
2017-08-14T23:59:59Z,63,92,75,56,90,62,72,53,7,13,0,0,0,0,0,0,2,90,2,62,0,92,0,63,0,0,0,0,0,0,0,0,48,37,7,34,29,15,92,0,0,63,16,1,92,0,0,63,6,1,92,0,0,63,15,1,92,0,0,63,7,1,91,1,0,62,8,1,91,1,0,62,7,1,38,50,4,26,45,4,83,7,2,59,11,2,83,7,2,59,11,2,0,88,4,0,61,4,0,88,4,0,61,4,40,48,4,29,38,5,86,6,0,61,10,1,65,16,11,49,12,14
2017-08-15T23:59:59Z,64,93,76,57,90,63,71,54,10,16,0,0,0,0,0,0,2,91,2,63,0,93,0,64,0,0,0,0,0,0,0,0,48,38,7,34,30,16,93,0,0,64,17,1,93,0,0,64,6,1,92,1,0,63,17,1,92,1,0,63,7,1,92,1,0,63,7,1,92,1,0,63,7,1,39,50,4,27,45,4,83,8,2,59,12,2,83,8,2,59,12,2,1,88,4,1,62,4,0,89,4,0,62,4,42,47,4,31,38,5,85,8,0,60,12,1,67,15,11,51,10,14
2017-08-16T23:59:59Z,63,91,74,56,89,62,69,52,8,14,0,0,0,0,0,0,2,89,2,61,0,91,0,63,0,0,0,0,0,0,0,0,48,37,6,34,29,15,91,0,0,63,16,1,90,1,0,63,7,1,89,2,0,62,17,1,90,1,0,63,8,1,90,1,0,63,7,1,90,1,0,63,8,1,37,50,4,25,45,4,82,7,2,60,11,2,82,7,2,60,12,2,0,87,4,0,60,4,0,87,4,0,60,4,39,48,4,28,38,5,85,6,0,61,11,1,64,16,11,49,11,14
2017-08-17T23:59:59Z,64,93,75,56,89,62,68,51,8,14,0,0,0,0,0,0,2,91,2,62,0,93,0,64,0,0,0,0,0,0,0,0,47,40,6,33,31,15,93,0,0,64,16,1,93,0,0,64,6,1,93,0,0,64,15,1,93,0,0,64,7,1,93,0,0,64,7,1,93,0,0,64,7,1,36,53,4,24,47,4,85,6,2,61,10,2,85,6,2,61,10,2,0,89,4,0,61,4,0,89,4,0,61,4,38,51,4,27,40,5,87,6,0,62,11,1,66,16,11,50,12,14
2017-08-18T23:59:59Z,63,90,72,55,87,61,66,50,9,15,0,0,0,0,0,0,2,88,2,61,0,90,0,63,0,0,0,0,0,0,0,0,46,37,7,32,30,15,90,0,0,63,16,1,90,0,0,63,7,1,90,0,0,63,15,1,90,0,0,63,7,1,89,1,0,62,7,1,89,1,0,62,7,1,35,51,4,24,46,4,82,6,2,60,10,2,82,6,2,60,10,2,0,86,4,0,60,4,0,86,4,0,60,4,37,49,4,27,39,5,83,7,0,60,11,1,63,16,11,49,12,14
2017-08-19T23:59:59Z,65,94,76,57,91,63,71,53,9,14,0,0,0,0,0,0,4,90,3,62,0,93,0,65,0,0,0,0,0,0,0,0,49,39,6,34,32,15,94,0,0,65,17,1,94,0,0,65,7,1,94,0,0,65,16,1,94,0,0,65,7,1,94,0,0,65,7,1,94,0,0,65,7,1,35,55,4,24,48,4,86,6,2,62,11,2,88,4,2,63,11,2,0,90,4,0,62,4,0,90,4,0,62,4,37,53,4,27,41,5,89,5,0,63,11,1,66,15,13,51,12,15
2017-08-20T23:59:59Z,65,95,77,57,91,63,72,53,9,15,0,0,0,0,0,0,4,91,3,62,0,95,0,65,0,0,0,0,0,0,0,0,49,40,6,34,32,15,95,0,0,65,16,1,94,1,0,64,7,1,92,1,2,63,16,2,95,0,0,65,7,1,94,1,0,64,7,1,94,1,0,64,8,1,34,56,5,23,49,5,86,7,2,61,11,2,87,6,2,62,11,2,0,89,6,0,61,5,2,89,4,1,61,4,36,53,6,26,41,6,88,7,0,62,11,1,67,15,13,51,11,15
2017-08-21T23:59:58Z,64,93,75,56,90,62,70,52,7,13,0,0,0,0,0,0,4,89,3,61,0,93,0,64,0,0,0,0,0,0,0,0,46,41,6,32,31,16,93,0,0,64,16,2,92,1,0,63,7,2,92,1,0,63,16,2,92,1,0,63,8,2,92,1,0,63,8,2,92,1,0,63,7,2,32,57,4,22,49,5,84,7,2,60,11,3,84,7,2,60,12,3,0,89,4,0,61,5,0,89,4,0,61,5,34,55,4,25,42,6,86,7,0,61,10,2,65,16,12,49,12,15
2017-08-22T23:59:59Z,66,94,75,58,91,64,70,54,7,14,0,0,0,0,0,0,4,90,3,63,0,91,0,65,0,0,0,0,0,0,0,0,50,38,6,36,32,16,94,0,0,66,18,2,94,0,0,66,7,2,94,0,0,66,17,2,94,0,0,66,7,2,93,1,0,65,8,2,93,1,0,65,8,2,34,56,4,24,50,5,85,7,2,62,13,3,85,7,2,62,12,3,0,90,4,0,63,5,0,90,4,0,63,5,36,54,4,27,42,6,88,6,0,64,10,2,67,15,12,52,13,15
2017-08-23T23:59:59Z,67,97,78,59,95,66,73,55,7,15,0,0,0,0,0,0,4,93,3,64,0,95,0,66,0,0,0,0,0,0,0,0,51,39,7,37,34,17,97,0,0,67,19,2,97,0,0,67,8,2,94,1,2,65,19,3,97,0,0,67,9,2,97,0,0,67,8,2,97,0,0,67,8,2,33,58,6,23,51,6,89,6,2,64,14,3,89,6,2,64,13,3,0,92,5,0,64,6,0,93,4,0,64,5,38,55,4,28,42,6,91,6,0,65,12,2,68,17,12,51,14,15
2017-08-24T23:59:58Z,68,97,77,60,93,66,72,56,9,17,0,0,0,0,0,0,7,90,5,64,0,96,0,68,0,0,0,0,0,0,0,0,49,42,6,35,35,17,97,0,0,68,20,3,97,0,0,68,8,3,97,0,0,68,19,3,97,0,0,68,8,3,97,0,0,68,9,3,97,0,0,68,8,3,33,60,4,23,53,6,87,8,2,63,15,4,87,8,2,63,15,4,0,93,4,0,65,6,0,93,4,0,65,6,35,58,4,26,45,7,90,7,0,65,12,2,68,17,12,52,16,15
2017-08-25T23:59:59Z,69,98,77,60,96,68,71,55,9,15,0,0,0,0,0,0,4,94,3,66,0,96,0,68,0,0,0,0,0,0,0,0,50,41,7,36,36,17,98,0,0,69,22,2,98,0,0,69,11,2,98,0,0,69,21,2,98,0,0,69,11,2,97,1,0,68,11,2,98,0,0,69,11,2,36,58,4,26,53,5,88,8,2,64,17,3,88,8,2,64,16,3,0,94,4,0,66,5,0,94,4,0,66,5,37,57,4,28,46,6,91,7,0,66,14,2,68,17,13,53,14,16